Find STARLINK-38088

NORAD ID: 799501247 Int'l Des: 2026-166P Constellation: starlink operational

Current View

Loading 3D Globe...

About STARLINK-38088

STARLINK-38088 (NORAD 799501247) is a starlink constellation satellite launched Jul 25, 2026

Upcoming Passes

Passes for default location (London). Set your location on the main map for personalized predictions.

Altitude History

Loading altitude history...

Two-Line Element Set

1 99999C 2026166P 26206.67270832-.02303800 00000-0 -519910-3 0 2066
2 99999 97.2845 222.0500 0001539 86.8389 31.1265 15.98817595 10
Epoch: Jul 25, 2026 • Age: 8 hours